Regional Weather Roundup
Issued by NWS Raleigh/Durham, NC

Home | Current Version | Previous Version | Text Only | Print | Product List | Glossary On
Versions: 1 2 3 4 5 6 7 8 9 10 11 12 13 14 15 16 17 18 19 20 21 22 23 24 25 26 27
000
ASUS42 KRAH 280010
RWRRAH
NORTH CAROLINA WEATHER ROUNDUP
NATIONAL WEATHER SERVICE RALEIGH NC
800 PM EDT TUE JUN 27 2017

NOTE: "FAIR" INDICATES FEW OR NO CLOUDS BELOW 12,000 FEET WITH NO
SIGNIFICANT WEATHER AND/OR OBSTRUCTIONS TO VISIBILITY.

NCZ001-053-055-056-065-067-280100-
WESTERN NORTH CAROLINA

CITY           SKY/WX    TMP DP  RH WIND       PRES   REMARKS
ASHEVILLE      CLEAR     72  40  31 N9        30.13R
JEFFERSON      PTCLDY    63  46  54 NW7       30.16R
HICKORY        CLEAR     75  49  39 CALM      30.08R
RUTHERFORDTON  NOT AVBL
MOUNT AIRY     CLEAR     74  49  40 CALM      30.09S
BOONE          NOT AVBL
$$

NCZ021-022-025-041-071-084-088-280100-
CENTRAL NORTH CAROLINA

CITY           SKY/WX    TMP DP  RH WIND       PRES   REMARKS
CHARLOTTE      PTCLDY    77  49  37 NE6       30.07R
GREENSBORO     PTCLDY    76  53  44 W3        30.06S
WINSTON-SALEM  CLEAR     75  48  38 CALM      30.08R
RALEIGH-DURHAM PTCLDY    77  51  40 N3        30.04S
FORT BRAGG     CLEAR     80  55  42 N5        30.02R
FAYETTEVILLE   PTCLDY    83  57  41 N9        30.01R
BURLINGTON     CLEAR     75  52  44 W6        30.05S
LAURINBURG     PTCLDY    82  60  47 N3        30.02S
$$

NCZ011-015-027-028-043-044-047-080-103-280100-
NORTHEASTERN NORTH CAROLINA

CITY           SKY/WX    TMP DP  RH WIND       PRES   REMARKS
ROCKY MT-WILSO PTCLDY    77  58  51 N10       30.02S
GREENVILLE     CLEAR     81  55  41 NW5       30.03R
WASHINGTON     PTCLDY   N/A N/A N/A NW3       30.01R
ELIZABETH CITY CLOUDY    75  67  76 NE9       30.00R
MANTEO         NOT AVBL
CAPE HATTERAS  NOT AVBL
$$

NCZ078-087-090-091-093-098-101-280100-
SOUTHEASTERN NORTH CAROLINA

CITY           SKY/WX    TMP DP  RH WIND       PRES   REMARKS
LUMBERTON      RAIN      83  58  42 N5        30.01R
GOLDSBORO      MOCLDY    81  60  48 W6        29.99F
KINSTON        CLEAR     81  63  54 CALM      30.01S
KENANSVILLE    PTCLDY    81  63  54 CALM      30.00F
NEW BERN       PTCLDY    78  69  73 W3        30.01R
CHERRY POINT   CLEAR     78  64  61 SW3       30.01S
BEAUFORT       MOCLDY    79  65  62 SW6       29.99S
JACKSONVILLE   PTCLDY    78  68  71 CALM      29.99F
WILMINGTON     CLEAR     78  66  66 S6        30.00S
$$





USA.gov is the U.S. government's official web portal to all federal, state and local government web resources and services.